sat.trackr.live / text

‹ back to catalog

STARLINK-34158

NORAD 63996 · 2025-101C

PAYLOAD ACTIVE UNKNOWN

§ Identity

Operator
Country
US
Launch date
2025-05-14
Launch site
AFETR
Launch vehicle
Mass (kg)
RCS (m²)

Purposes: comms

External: N2YO · Heavens-Above · Gunter

§ Orbital elements

Epoch: 2026-09-20T21:52:26.806368Z

Period
94.27 min
Inclination
43.0013°
Eccentricity
0.0001893
Mean motion
15.27579909 rev/d
Perigee alt
481.8 km
Apogee alt
484.3 km
Semi-major
6,861.2 km
B*
4.1360e-4
RAAN
335.3426°
Arg perigee
270.4020°
Mean anomaly
89.6615°
Rev number
7,691

§ Raw data

STARLINK-341581 63996U 25101C   26263.91142137  .00011136  00000+0  41360-3 0  99972 63996  43.0013 335.3426 0001893 270.4020  89.6615 15.27579909 76910

JSON: /api/v1/satellites/63996 · /tle

For live sub-satellite position, see the globe view (requires WebGL).

§ Visibility from observer

Set your observer location to see the next 7 days of passes ≥ 10°. The values pass through the URL so the page stays shareable.

No JS? Fill the form by hand. The geolocation button needs JavaScript.